Mandan, ND

3:23 PM CDT on May 22, 2017 (GMT -0500)
Mandan

Weather History for KY19 - March, 2012

Change the Weather History Date:

Friday, March 2, 2012

  Actual Average (KBIS) Record (KBIS)
Temperature  
Mean Temperature 26 °F -  
Max Temperature 28 °F 29 °F 67 °F (1905)
Min Temperature 21 °F 11 °F -23 °F (1972)
Degree Days  
Heating Degree Days 40    
Moisture  
Dew Point 23 °F    
Average Humidity 96    
Maximum Humidity 100    
Minimum Humidity 86    
Precipitation  
Precipitation 0.56 in - - ()
Sea Level Pressure  
Sea Level Pressure 29.73 in    
Wind  
Wind Speed 21 mph (NW)    
Max Wind Speed 31 mph    
Max Gust Speed 40 mph    
Visibility 6 miles    
Events Rain , Snow    
Averages and records for this station are not official NWS values.
T = Trace of Precipitation, MM = Missing Value Source: NWS Daily Summary

Daily Weather History Graph

Daily Weather History Graph

Search for Another Location

Airport or City:

Trip Planner

Search our weather history database for the weather conditions in past years. The results will help you decide how hot, cold, wet, or windy it might be!

Date:

Astronomy

Mar. 02, 2012 Rise Set
Actual Time 7:20 AM CST 6:31 PM CST
Civil Twilight 6:49 AM CST 7:01 PM CST
Nautical Twilight 6:14 AM CST 7:37 PM CST
Astronomical Twilight 5:39 AM CST 8:12 PM CST
Moon 12:28 PM CST (3/2) 3:29 AM CST (3/2)
Length of Visible Light 12h 11m
Length of Day
11h 11m
Waxing Gibbous, 66% of the Moon is Illuminated
Mar 2
Waxing Gibbous
Mar 8
Full
Mar 14
Last Quarter
Mar 22
New
Mar 30
First Quarter

Hourly Weather History & Observations

Time (CST) Temp. Windchill Dew Point Humidity Pressure Visibility Wind Dir Wind Speed Gust Speed Precip Events Conditions
12:15 AM 23.0 °F 10.6 °F 21.2 °F 93% 29.63 in 10.0 mi West 13.8 mph - N/A   Partly Cloudy
12:35 AM 23.0 °F 11.1 °F 19.4 °F 86% 29.63 in 10.0 mi West 12.7 mph - N/A   Clear
12:55 AM 23.0 °F 11.1 °F 21.2 °F 93% 29.63 in 10.0 mi West 12.7 mph - N/A   Mostly Cloudy
1:15 AM 24.8 °F 14.0 °F 23.0 °F 93% 29.64 in 10.0 mi West 11.5 mph - N/A   Overcast
1:35 AM 24.8 °F 13.4 °F 23.0 °F 93% 29.64 in 10.0 mi WNW 12.7 mph 19.6 mph N/A   Mostly Cloudy
1:55 AM 24.8 °F 10.7 °F 24.8 °F 100% 29.64 in 10.0 mi West 19.6 mph 24.2 mph N/A Rain Light Freezing Rain
2:35 AM 23.0 °F 8.3 °F 21.2 °F 93% 29.64 in 10.0 mi West 19.6 mph - N/A   Overcast
2:55 AM 23.0 °F 7.2 °F 19.4 °F 86% 29.64 in 10.0 mi West 23.0 mph 29.9 mph N/A   Overcast
3:15 AM 23.0 °F 6.6 °F 21.2 °F 93% 29.63 in 6.0 mi West 25.3 mph 32.2 mph N/A Rain Light Freezing Rain
3:35 AM 23.0 °F 6.9 °F 23.0 °F 100% 29.63 in 3.0 mi West 24.2 mph 29.9 mph 0.03 in Snow Light Snow
3:55 AM 23.0 °F 7.2 °F 23.0 °F 100% 29.63 in 3.0 mi WNW 23.0 mph 34.5 mph 0.11 in Snow Light Snow
4:15 AM 23.0 °F 6.6 °F 23.0 °F 100% 29.63 in 6.0 mi WNW 25.3 mph 31.1 mph N/A Rain Light Freezing Rain
4:35 AM 23.0 °F 6.3 °F 23.0 °F 100% 29.63 in 5.0 mi WNW 26.5 mph 34.5 mph N/A Rain Light Freezing Rain
4:55 AM 23.0 °F 6.6 °F 21.2 °F 93% 29.64 in 6.0 mi WNW 25.3 mph 32.2 mph N/A Rain Light Freezing Rain
5:15 AM 23.0 °F 7.6 °F 23.0 °F 100% 29.65 in 5.0 mi WNW 21.9 mph 33.4 mph N/A Rain Light Freezing Rain
5:35 AM 23.0 °F 6.6 °F 23.0 °F 100% 29.65 in 5.0 mi WNW 25.3 mph 35.7 mph N/A Rain Light Freezing Rain
5:55 AM 23.0 °F 6.0 °F 23.0 °F 100% 29.65 in 5.0 mi WNW 27.6 mph 33.4 mph N/A Rain Light Freezing Rain
6:15 AM 23.0 °F 6.0 °F 23.0 °F 100% 29.66 in 3.0 mi WNW 27.6 mph 35.7 mph N/A   Overcast
6:35 AM 23.0 °F 6.9 °F 23.0 °F 100% 29.67 in 4.0 mi WNW 24.2 mph 32.2 mph 0.01 in Rain Light Freezing Rain
6:55 AM 23.0 °F 6.9 °F 23.0 °F 100% 29.67 in 6.0 mi WNW 24.2 mph 31.1 mph 0.01 in Rain Light Freezing Rain
7:15 AM 23.0 °F 7.2 °F 23.0 °F 100% 29.67 in 5.0 mi WNW 23.0 mph 35.7 mph N/A Rain Light Freezing Rain
7:35 AM 23.0 °F 6.6 °F 23.0 °F 100% 29.68 in 4.0 mi WNW 25.3 mph 32.2 mph N/A Rain Light Freezing Rain
7:55 AM 23.0 °F 7.2 °F 23.0 °F 100% 29.68 in 5.0 mi WNW 23.0 mph 33.4 mph N/A Rain Light Freezing Rain
8:15 AM 23.0 °F 6.6 °F 23.0 °F 100% 29.68 in 4.0 mi WNW 25.3 mph 32.2 mph N/A Rain Light Freezing Rain
8:35 AM 23.0 °F 6.3 °F 23.0 °F 100% 29.69 in 4.0 mi WNW 26.5 mph 32.2 mph N/A Rain Light Freezing Rain
8:55 AM 23.0 °F 6.6 °F 23.0 °F 100% 29.70 in 3.0 mi NW 25.3 mph 33.4 mph N/A Rain Light Freezing Rain
9:15 AM 23.0 °F 6.9 °F 23.0 °F 100% 29.70 in 2.5 mi NW 24.2 mph 31.1 mph N/A Snow Light Snow
9:35 AM 23.0 °F 6.9 °F 23.0 °F 100% 29.71 in 2.5 mi NW 24.2 mph 31.1 mph 0.01 in   Overcast
10:15 AM 24.8 °F 8.7 °F 24.8 °F 100% 29.72 in 2.5 mi NW 26.5 mph 34.5 mph N/A   Mostly Cloudy
10:55 AM 24.8 °F 9.0 °F 23.0 °F 93% 29.73 in 7.0 mi NW 25.3 mph 34.5 mph 0.01 in Rain Light Freezing Rain
11:15 AM 24.8 °F 8.7 °F 23.0 °F 93% 29.74 in 8.0 mi NW 26.5 mph 33.4 mph N/A Rain Light Freezing Rain
11:35 AM 24.8 °F 8.7 °F 23.0 °F 93% 29.74 in 10.0 mi NW 26.5 mph 35.7 mph N/A Rain Light Freezing Rain
12:15 PM 26.6 °F 11.1 °F 24.8 °F 93% 29.76 in 7.0 mi NW 26.5 mph 32.2 mph N/A Rain Light Freezing Rain
12:35 PM 26.6 °F 12.4 °F 24.8 °F 93% 29.76 in 9.0 mi NW 21.9 mph 33.4 mph N/A Rain Light Freezing Rain
12:55 PM 26.6 °F 11.1 °F 24.8 °F 93% 29.76 in 10.0 mi NW 26.5 mph 38.0 mph N/A   Overcast
1:35 PM 26.6 °F 11.1 °F 24.8 °F 93% 29.76 in 9.0 mi NW 26.5 mph 32.2 mph N/A   Overcast
1:55 PM 26.6 °F 10.6 °F 24.8 °F 93% 29.76 in 5.0 mi NW 28.8 mph 38.0 mph N/A Rain Light Freezing Rain
2:35 PM 26.6 °F 10.0 °F 24.8 °F 93% 29.76 in 8.0 mi NW 31.1 mph 40.3 mph N/A Rain Light Freezing Rain
2:55 PM 28.4 °F 12.7 °F 24.8 °F 86% 29.77 in 9.0 mi NW 29.9 mph 38.0 mph N/A Rain Light Freezing Rain
3:15 PM 26.6 °F 11.1 °F 24.8 °F 93% 29.78 in 3.0 mi NW 26.5 mph 38.0 mph N/A Rain Light Freezing Rain
3:55 PM 26.6 °F 11.4 °F 24.8 °F 93% 29.80 in 5.0 mi NNW 25.3 mph 32.2 mph 0.01 in Snow Light Snow
4:15 PM 26.6 °F 12.7 °F 24.8 °F 93% 29.81 in 3.0 mi NNW 20.7 mph 29.9 mph 0.01 in Snow Light Snow
4:35 PM 26.6 °F 11.4 °F 24.8 °F 93% 29.81 in 1.8 mi NNW 25.3 mph 31.1 mph 0.10 in Snow Light Snow
4:55 PM 26.6 °F 12.0 °F 24.8 °F 93% 29.82 in 5.0 mi NW 23.0 mph 35.7 mph 0.15 in Snow Light Snow
5:15 PM 26.6 °F 12.0 °F 24.8 °F 93% 29.82 in 4.0 mi NW 23.0 mph 34.5 mph 0.01 in Snow Light Snow
5:35 PM 26.6 °F 13.1 °F 26.6 °F 100% 29.83 in 4.0 mi NW 19.6 mph 26.5 mph 0.05 in Snow Light Snow
5:55 PM 26.6 °F 12.4 °F 24.8 °F 93% 29.84 in 5.0 mi NNW 21.9 mph 29.9 mph 0.09 in Snow Light Snow
6:15 PM 24.8 °F 10.0 °F 24.8 °F 100% 29.85 in 5.0 mi NW 21.9 mph 28.8 mph 0.01 in Snow Light Snow
6:35 PM 24.8 °F 9.6 °F 24.8 °F 100% 29.85 in 1.2 mi NW 23.0 mph 26.5 mph 0.13 in Snow Light Snow
6:55 PM 24.8 °F 10.7 °F 24.8 °F 100% 29.86 in 9.0 mi NW 19.6 mph 26.5 mph 0.17 in Snow Light Snow
7:15 PM 23.0 °F 8.7 °F 23.0 °F 100% 29.87 in 10.0 mi NW 18.4 mph 24.2 mph N/A   Mostly Cloudy
7:35 PM 23.0 °F 8.3 °F 21.2 °F 93% 29.87 in 10.0 mi NW 19.6 mph 23.0 mph N/A   Overcast
7:55 PM 23.0 °F 7.2 °F 21.2 °F 93% 29.87 in 10.0 mi NW 23.0 mph 31.1 mph N/A   Overcast
8:15 PM 23.0 °F 8.0 °F 19.4 °F 86% 29.88 in 10.0 mi NW 20.7 mph 27.6 mph N/A   Overcast
8:35 PM 21.2 °F 6.4 °F 19.4 °F 93% 29.88 in 10.0 mi NW 18.4 mph 25.3 mph N/A   Overcast
8:55 PM 19.4 °F 6.0 °F 19.4 °F 100% 29.89 in 10.0 mi NW 13.8 mph - N/A   Overcast
9:15 PM 19.4 °F 5.5 °F 19.4 °F 100% 29.89 in 10.0 mi WNW 15.0 mph 19.6 mph N/A   Overcast
9:35 PM 19.4 °F 6.0 °F 17.6 °F 93% 29.89 in 10.0 mi WNW 13.8 mph - N/A   Overcast
9:55 PM 19.4 °F 6.0 °F 17.6 °F 93% 29.89 in 10.0 mi WNW 13.8 mph - N/A   Overcast
10:15 PM 19.4 °F 4.5 °F 17.6 °F 93% 29.89 in 10.0 mi NW 17.3 mph 23.0 mph N/A   Overcast
10:35 PM 19.4 °F 5.5 °F 17.6 °F 93% 29.89 in 10.0 mi NW 15.0 mph - N/A   Overcast
10:55 PM 19.4 °F 4.5 °F 17.6 °F 93% 29.89 in 10.0 mi NW 17.3 mph 21.9 mph N/A   Overcast
11:15 PM 17.6 °F 2.7 °F 17.6 °F 100% 29.89 in 10.0 mi NW 16.1 mph 23.0 mph N/A   Overcast
11:35 PM 17.6 °F 3.7 °F 17.6 °F 100% 29.88 in 10.0 mi NW 13.8 mph - N/A   Overcast
11:55 PM 17.6 °F 2.7 °F 17.6 °F 100% 29.88 in 10.0 mi NW 16.1 mph - N/A   Mostly Cloudy